Погода в Ванзевате

Россия / Ханты-Мансийский автономный округ - Югра     64°14′01″N   66°02′10″E
В апреле 2022 года жителям России запретили посещать сайт meteo.paraplan.net по решению Генеральной прокуратуры. Аудитория сайта уменьшилась в 10 раз. Владельцы сайта не видят смысла в поддержке погодного сервера в таких условиях. Сайт будет закрыт в октябре.
темп.,
°C
ветер,
м/с
пор.,
м/с
влажн.,
%
обл.,
%
осадки,
мм/ч
давл.,
гПа
погр.,
м
25 сентября, вс
вс2523:00+1ссв478898 0.1 1026518
02:00−1ссв348815 0.0 1026128
05:00−2ссв34925 0.0 102783
08:00−1ссв48805 0.0 1027309
11:00+3ссв465812 0.0 1028950
14:00+4св5648100 0.0 10271472
17:00+3св46515 0.0 1028458
20:00−1св35665 0.0 102860
26 сентября, пн
пн2623:00−2св33725 0.0 102845
02:00−2ссв23775 0.0 102932
05:00−3ссв23825 0.0 102837
08:00−2ссв35795 0.0 1028192
11:00+2ссв45586 0.0 1027871
14:00+4ссв454980 0.0 10261250
17:00+3ссв465580 0.0 1025388
20:00−1ссв3570100 0.0 102581
27 сентября, вт
вт2723:00−2ссв34805 0.0 102657
02:00−2ссв3682100 0.0 1026153
05:00−3ссв37925 0.0 1026158
08:00−2ссв37895 0.0 1026288
11:00+1ссв4562100 0.0 10261015
14:00+2ссв5660100 0.0 10261232
17:00+1ссв476772 0.0 1026896
20:00−2ссв488549 0.0 1027164
28 сентября, ср
ср2823:00−2ссв369163 0.0 1028109
02:00−3ссв359059 0.0 102874
05:00−3с359179 0.0 102994
08:00−3с478484 0.0 1029281
11:000ссв5668100 0.0 1029733
14:00+1ссв5664100 0.0 10291129
17:00+1ссв4666100 0.0 10291015
20:000ссв4772100 0.0 1029336
29 сентября, чт
чт2923:00−1с477999 0.0 1029231
02:00−3с369011 0.0 103098
05:00−3с369366 0.0 1031109
08:00−2ссв378946 0.0 1031236
11:00+2ссв466832 0.0 1031693
14:00+3св4566100 0.0 1032998
17:00+2с3477100 0.0 1032216
20:00+1с2383100 0.0 103264